• In Österreich
  • Länderverzeichnis
  • Für 7 Tage
  • Wassertemperatur
  • Satellitenkarten
  • Wetterkarte
  • News
  • Widgets
  • user-avatar
    Anmelden

    Stündliche Wetter Kaprun

    Heute, 20 Oktober, Samstag

    Zeit Temperatur Niederschläge Wind Luftdruck Luftfeuchtigkeit
    00:00 +2°C° 0 mm 1 m/S 600 mmHg 94%
    01:00 +2°C° 0 mm 1 m/S 600 mmHg 94%
    02:00 +2°C° 0 mm 1 m/S 600 mmHg 94%
    03:00 +2°C° 0 mm 1 m/S 600 mmHg 93%
    04:00 +1°C° 0 mm 1 m/S 600 mmHg 92%
    05:00 +1°C° 0 mm 1 m/S 600 mmHg 90%
    06:00 +1°C° 0 mm 1 m/S 600 mmHg 88%
    07:00 +1°C° 0 mm 1 m/S 600 mmHg 86%
    08:00 +3°C° 0 mm 1 m/S 602 mmHg 76%
    09:00 +6°C° 0 mm 1 m/S 603 mmHg 66%
    10:00 +8°C° 0 mm 1 m/S 604 mmHg 56%
    11:00 +9°C° 0 mm 1 m/S 604 mmHg 53%
    12:00 +9°C° 0 mm 2 m/S 604 mmHg 51%
    13:00 +9°C° 0 mm 2 m/S 605 mmHg 48%
    14:00 +9°C° 0 mm 2 m/S 604 mmHg 54%
    15:00 +8°C° 0 mm 2 m/S 604 mmHg 61%
    16:00 +7°C° 0 mm 2 m/S 603 mmHg 67%
    17:00 +5°C° 0 mm 2 m/S 603 mmHg 76%
    18:00 +4°C° 0 mm 2 m/S 602 mmHg 85%
    19:00 +3°C° 0 mm 1 m/S 601 mmHg 95%
    20:00 +2°C° 0 mm 2 m/S 602 mmHg 94%
    21:00 +2°C° 0 mm 2 m/S 602 mmHg 94%
    22:00 +2°C° 0 mm 2 m/S 602 mmHg 93%
    23:00 +1°C° 0 mm 2 m/S 601 mmHg 94%

    Morgen, 21 Oktober, Sonntag

    Zeit Temperatur Niederschläge Wind Luftdruck Luftfeuchtigkeit
    00:00 +1°C° 0 mm 2 m/S 601 mmHg 94%
    01:00 -1°C° 0 mm 2 m/S 601 mmHg 94%
    02:00 -1°C° 0 mm 2 m/S 601 mmHg 94%
    03:00 -1°C° 0 mm 2 m/S 600 mmHg 93%
    04:00 -1°C° 0 mm 2 m/S 600 mmHg 92%
    05:00 -1°C° 0 mm 2 m/S 600 mmHg 93%
    06:00 -1°C° 0 mm 2 m/S 600 mmHg 93%
    07:00 -2°C° 0 mm 2 m/S 600 mmHg 94%
    08:00 -1°C° 0.1 mm 2 m/S 600 mmHg 87%
    09:00 +1°C° 0.1 mm 3 m/S 601 mmHg 80%
    10:00 +2°C° 0.1 mm 3 m/S 601 mmHg 73%
    11:00 +2°C° 0 mm 3 m/S 601 mmHg 68%
    12:00 +2°C° 0 mm 3 m/S 601 mmHg 64%
    13:00 +3°C° 0 mm 3 m/S 601 mmHg 60%
    14:00 +2°C° 0 mm 3 m/S 600 mmHg 62%
    15:00 +1°C° 0 mm 3 m/S 600 mmHg 64%
    16:00 +1°C° 0 mm 3 m/S 599 mmHg 66%
    17:00 -1°C° 0 mm 2 m/S 599 mmHg 74%
    18:00 -3°C° 0 mm 2 m/S 599 mmHg 83%
    19:00 -4°C° 0 mm 2 m/S 598 mmHg 91%
    20:00 -5°C° 0 mm 2 m/S 598 mmHg 91%
    21:00 -5°C° 0 mm 2 m/S 599 mmHg 90%
    22:00 -5°C° 0 mm 2 m/S 599 mmHg 90%
    23:00 -5°C° 0 mm 2 m/S 598 mmHg 88%

    übermorgen, 22 Oktober, Montag

    Zeit Temperatur Niederschläge Wind Luftdruck Luftfeuchtigkeit
    00:00 -4°C° 0 mm 1 m/S 598 mmHg 86%
    01:00 -4°C° 0 mm 1 m/S 598 mmHg 84%
    02:00 -4°C° 0 mm 1 m/S 598 mmHg 81%
    03:00 -3°C° 0 mm 1 m/S 598 mmHg 79%
    04:00 -3°C° 0 mm 1 m/S 597 mmHg 77%
    05:00 -3°C° 0 mm 1 m/S 598 mmHg 75%
    06:00 -3°C° 0 mm 1 m/S 598 mmHg 73%
    07:00 -3°C° 0 mm 1 m/S 598 mmHg 71%
    08:00 -1°C° 0 mm 1 m/S 599 mmHg 63%
    09:00 +2°C° 0 mm 1 m/S 600 mmHg 54%
    10:00 +5°C° 0 mm 1 m/S 601 mmHg 46%
    11:00 +4°C° 0 mm 2 m/S 601 mmHg 46%
    12:00 +5°C° 0 mm 2 m/S 601 mmHg 46%
    13:00 +6°C° 0 mm 2 m/S 601 mmHg 46%
    14:00 +5°C° 0 mm 2 m/S 600 mmHg 52%
    15:00 +4°C° 0 mm 2 m/S 600 mmHg 59%
    16:00 +3°C° 0 mm 2 m/S 599 mmHg 66%
    17:00 +2°C° 0 mm 2 m/S 599 mmHg 74%
    18:00 -1°C° 0 mm 2 m/S 599 mmHg 83%
    19:00 -2°C° 0 mm 2 m/S 599 mmHg 92%
    20:00 -2°C° 0 mm 2 m/S 599 mmHg 92%
    21:00 -2°C° 0 mm 2 m/S 600 mmHg 92%
    22:00 -2°C° 0 mm 2 m/S 600 mmHg 91%
    23:00 -3°C° 0 mm 2 m/S 600 mmHg 91%

    23 Oktober, Dienstag

    Zeit Temperatur Niederschläge Wind Luftdruck Luftfeuchtigkeit
    00:00 -3°C° 0 mm 2 m/S 600 mmHg 91%
    01:00 -3°C° 0 mm 2 m/S 600 mmHg 90%
    02:00 -3°C° 0 mm 2 m/S 600 mmHg 91%
    03:00 -4°C° 0 mm 2 m/S 599 mmHg 91%
    04:00 -4°C° 0 mm 2 m/S 599 mmHg 92%
    05:00 -4°C° 0.1 mm 2 m/S 599 mmHg 89%
    06:00 -4°C° 0.1 mm 2 m/S 600 mmHg 87%
    07:00 -4°C° 0.1 mm 2 m/S 600 mmHg 85%
    08:00 -3°C° 0.1 mm 2 m/S 600 mmHg 81%
    09:00 -1°C° 0.1 mm 2 m/S 601 mmHg 76%
    10:00 +1°C° 0.1 mm 2 m/S 602 mmHg 72%
    11:00 +1°C° 0 mm 2 m/S 601 mmHg 70%
    12:00 +2°C° 0 mm 2 m/S 601 mmHg 69%
    13:00 +1°C° 0 mm 3 m/S 601 mmHg 67%
    14:00 +2°C° 0 mm 2 m/S 601 mmHg 70%
    15:00 +1°C° 0 mm 2 m/S 600 mmHg 72%
    16:00 +1°C° 0 mm 2 m/S 600 mmHg 75%
    17:00 -1°C° 0 mm 2 m/S 600 mmHg 81%
    18:00 -2°C° 0 mm 2 m/S 600 mmHg 87%
    19:00 -4°C° 0 mm 2 m/S 599 mmHg 92%
    20:00 -4°C° 0 mm 2 m/S 599 mmHg 91%
    21:00 -4°C° 0 mm 2 m/S 599 mmHg 90%
    22:00 -5°C° 0 mm 2 m/S 599 mmHg 88%
    23:00 -4°C° 0.1 mm 2 m/S 599 mmHg 85%

    24 Oktober, Mittwoch

    Zeit Temperatur Niederschläge Wind Luftdruck Luftfeuchtigkeit
    00:00 -3°C° 0.1 mm 2 m/S 599 mmHg 81%
    01:00 -4°C° 0.1 mm 3 m/S 599 mmHg 77%
    02:00 -2°C° 0.2 mm 3 m/S 599 mmHg 77%
    03:00 -2°C° 0.2 mm 3 m/S 598 mmHg 78%
    04:00 -2°C° 0.2 mm 3 m/S 598 mmHg 78%
    05:00 -2°C° 0.5 mm 3 m/S 598 mmHg 81%
    06:00 -2°C° 0.5 mm 3 m/S 598 mmHg 84%
    07:00 -1°C° 0.5 mm 3 m/S 598 mmHg 87%
    08:00 -1°C° 0.8 mm 3 m/S 598 mmHg 88%
    09:00 0°C° 0.8 mm 3 m/S 598 mmHg 88%
    10:00 0°C° 0.8 mm 3 m/S 598 mmHg 89%
    11:00 +1°C° 0.7 mm 3 m/S 598 mmHg 88%
    12:00 +1°C° 0.7 mm 3 m/S 598 mmHg 88%
    13:00 +2°C° 0.7 mm 3 m/S 598 mmHg 87%
    14:00 +2°C° 0.8 mm 3 m/S 598 mmHg 88%
    15:00 +1°C° 0.8 mm 3 m/S 598 mmHg 89%
    16:00 +1°C° 0.8 mm 3 m/S 598 mmHg 91%
    17:00 +1°C° 1.1 mm 3 m/S 598 mmHg 92%
    18:00 +1°C° 1.1 mm 3 m/S 598 mmHg 93%
    19:00 +1°C° 1.1 mm 3 m/S 598 mmHg 94%
    20:00 +1°C° 1.1 mm 3 m/S 599 mmHg 94%
    21:00 +1°C° 1.1 mm 3 m/S 599 mmHg 94%
    22:00 +1°C° 1.1 mm 3 m/S 599 mmHg 95%
    23:00 +1°C° 0.9 mm 3 m/S 599 mmHg 95%

    25 Oktober, Donnerstag

    Zeit Temperatur Niederschläge Wind Luftdruck Luftfeuchtigkeit
    00:00 +1°C° 0.9 mm 3 m/S 599 mmHg 95%
    01:00 +1°C° 0.9 mm 3 m/S 599 mmHg 96%
    02:00 0°C° 0.7 mm 3 m/S 599 mmHg 96%
    03:00 0°C° 0.7 mm 3 m/S 599 mmHg 96%
    04:00 0°C° 0.7 mm 3 m/S 599 mmHg 96%
    05:00 0°C° 0.2 mm 3 m/S 599 mmHg 96%
    06:00 +1°C° 0.2 mm 2 m/S 599 mmHg 96%
    07:00 +1°C° 0.2 mm 2 m/S 599 mmHg 96%
    08:00 +2°C° 0.1 mm 2 m/S 600 mmHg 92%
    09:00 +3°C° 0.1 mm 2 m/S 600 mmHg 88%
    10:00 +4°C° 0.1 mm 2 m/S 600 mmHg 83%
    11:00 +5°C° 0 mm 2 m/S 600 mmHg 78%
    12:00 +6°C° 0 mm 2 m/S 601 mmHg 73%
    13:00 +7°C° 0 mm 2 m/S 601 mmHg 67%
    14:00 +7°C° 0 mm 2 m/S 600 mmHg 70%
    15:00 +6°C° 0 mm 2 m/S 600 mmHg 73%
    16:00 +5°C° 0 mm 2 m/S 599 mmHg 76%
    17:00 +4°C° 0 mm 2 m/S 599 mmHg 81%
    18:00 +2°C° 0 mm 2 m/S 598 mmHg 87%
    19:00 +1°C° 0 mm 2 m/S 597 mmHg 92%
    20:00 -1°C° 0 mm 2 m/S 597 mmHg 92%
    21:00 -1°C° 0 mm 2 m/S 597 mmHg 92%
    22:00 -1°C° 0 mm 2 m/S 597 mmHg 92%
    23:00 -1°C° 0 mm 2 m/S 597 mmHg 91%
    Mehr zeigen